Location: *
(58.4167°N, 22.5000°E)
Time: 19:39:23
(UTC+00:00)

Okean 2 Rocket - Pass Details

Date: 22 September 2019
Orbit: 617 x 641 km, 82.5° (Epoch: 21 October)

Event Time Altitude Azimuth Distance (km) Brightness Sun altitude
Rises 17:10:28 0° 206° (SSW) 2,928 6.7 -6.0°
Reaches altitude 10° 17:12:45 10° 210° (SSW) 2,027 6.0 -6.3°
Maximum altitude 17:17:10 54° 289° (WNW) 781 4.1 -6.9°
Drops below altitude 10° 17:21:38 10° 7° (N) 2,051 5.8 -7.5°
Sets 17:23:57 0° 12° (NNE) 2,966 6.6 -7.7°
